Location: Oriwa
(40.7500°S, 175.3333°E)
Time: 14:07:54
(UTC+00:00)

Lacrosse 5 rocket - Pass Details

Date: 03 February 2023
Orbit: 455 x 612 km, 57.0° (Epoch: 30 March)

Event Time Altitude Azimuth Distance (km) Brightness Sun altitude
Exits shadow 15:16:37 - 240° (WSW) 2,440 4.5 -21.3°
Reaches altitude 10° 15:18:37 10° 221° (SW) 2,011 4.2 -21.0°
Maximum altitude 15:20:38 13° 195° (SSW) 1,844 4.4 -20.8°
Drops below altitude 10° 15:22:40 10° 169° (SSE) 2,016 5.0 -20.5°
Sets 15:26:19 0° 139° (SE) 2,915 6.6 -20.0°
